Tracking 30995 objects as of 5-Jul-2025
HD Live streaming from Space Station
objects crossing your sky now

COSMOS 2128

Track COSMOS 2128 now!
10-day predictions
COSMOS 2128 is classified as:


NORAD ID: 21103
Int'l Code: 1991-009D
Perigee: 1,451.8 km
Apogee: 1,475.4 km
Inclination: 74.0 °
Period: 115.0 minutes
Semi major axis: 7834 km
RCS: 0.6873 m2 (medium)
Launch date: February 12, 1991
Source: Commonwealth of Independent States (former USSR) (CIS)
Launch site: PLESETSK MISSILE AND SPACE COMPLEX (PKMTR)
Your satellite tracking list
Your tracking list is empty




NASA's NSSDC Master Catalog

Two Line Element Set (TLE):
1 21103U 91009D   25186.59589670  .00000003  00000-0  12473-3 0  9990
2 21103  74.0315   0.2367 0015057 240.4878 119.4672 12.51918490571865
Source of the keplerian elements: AFSPC